#timestamp,LO_Frequency,Hit,StdDev 
1510268415.3,286046987.5,N
1510268435.1,286046989.4,N
1510268455.9,286046991.4,N
1510268475.7,286046990.6,N
1510268495.5,286046989.9,N
1510268515.4,286046987.5,N
1510268535.2,286046989.9,N
1510268555.0,286046991.3,N
1510268555.9,286046991.3,N
1510268575.8,286046986.9,Y
1510268595.6,286046996.6,P
1510268615.4,286046999.5,N
1510268635.3,286046998.1,N
1510268655.1,286047002.3,N
1510268656.0,286047002.3,N
1510268675.8,286046999.2,N
1510268695.7,286046996.6,N
1510268715.5,286047000.7,N
1510268735.3,286047002.2,N
1510268755.2,286046999.0,N
1510268775.9,286046997.5,N
1510268795.7,286046996.2,N
1510268815.5,286046994.3,N
1510268835.4,286046994.8,N
1510268855.2,286046997.2,N
1510268875.0,286046999.5,N
1510268875.9,286046999.5,N
1510268895.8,286046999.1,N
1510268915.6,286046997.1,N
1510268935.4,286046999.5,N
1510268955.3,286046998.3,N
1510268975.1,286046997.2,N
1510268995.8,286047000.8,N
1510269015.7,286046999.9,N
1510269035.5,286047001.7,N
1510269055.3,286047004.3,N
1510269075.2,286047000.8,N
1510269095.9,286046999.4,N
1510269115.7,286046999.6,N
1510269135.6,286047000.4,N
1510269155.4,286047002.6,N
1510269175.2,286047000.9,N
1510269195.0,286047004.0,N
1510269195.9,286047004.0,N
1510269215.8,286047001.3,N
1510269235.6,286047000.4,N
1510269255.4,286047000.3,N
1510269275.3,286046998.1,N
1510269295.1,286046996.6,N
1510269315.8,286046997.1,N
1510269335.7,286046998.2,N
1510269355.5,286046999.0,N
1510269375.3,286047001.5,N
1510269395.2,286047003.6,N
1510269415.9,286047005.5,N
1510269435.7,286047005.6,N
1510269455.6,286047003.5,N
1510269475.4,286047001.4,N
1510269495.2,286047003.8,N
1510269515.0,286047002.2,N
1510269516.0,286047002.2,N
1510269535.8,286047004.2,N
1510269555.6,286047008.7,Y
1510269575.5,286047008.3,P
1510269595.3,286047007.8,N
1510269615.1,286047009.2,N
1510269635.9,286047010.8,Y
1510269655.7,286047001.9,P
1510269675.5,286047009.2,P
1510269695.3,286047008.5,N
1510269715.2,286047007.4,N
1510269735.0,286047006.1,N
1510269735.9,286047006.1,N
1510269755.8,286047009.2,Y
1510269775.6,286047009.2,P
1510269795.4,286047003.2,N
1510269815.2,286047003.8,N
1510269835.1,286047002.9,N
1510269836.0,286047002.9,N
1510269855.8,286047003.6,N
1510269875.6,286047007.5,Y
1510269895.5,286047004.0,P
1510269915.3,286046999.7,N
1510269935.1,286046998.2,N
1510269955.9,286047002.6,N
1510269975.7,286047002.4,N
1510269995.5,286047002.6,N
1510270015.4,286047004.0,N
1510270035.2,286047001.6,N
1510270055.0,286047003.8,N
1510270055.9,286047003.8,N
1510270075.8,286047005.7,N
1510270095.6,286047001.7,N
1510270115.4,286047003.4,N
1510270135.3,286047007.2,Y
1510270155.1,286047001.8,P
1510270156.0,286047001.8,P
1510270175.8,286047006.8,P
1510270195.7,286047004.5,N
1510270215.5,286047006.8,Y
1510270235.3,286047003.3,P
1510270255.2,286047005.4,P
1510270275.9,286047002.9,P
1510270295.7,286047001.3,N
1510270315.6,286047004.0,Y
1510270335.4,286047002.7,P
1510270355.2,286047000.6,N
1510270375.1,286047003.8,P
1510270376.0,286047003.8,Y
1510270395.8,286047001.5,P
1510270415.6,286047001.2,N
1510270435.5,286047002.2,P
1510270455.3,286047001.6,N
1510270475.1,286047004.0,Y
1510270495.9,286047004.0,P
1510270515.7,286047000.1,N
1510270535.5,286046996.6,N
1510270555.4,286046991.7,Y
1510270575.2,286046988.6,P
1510270595.0,286046989.0,N
1510270595.9,286046989.0,N
1510270615.8,286046989.6,N
1510270635.6,286046985.7,Y
1510270655.4,286046997.0,P
1510270675.3,286046999.5,N
1510270695.1,286046996.3,N
1510270696.0,286046996.3,N
1510270715.8,286046997.9,N
1510270735.7,286046994.0,N
1510270755.5,286046994.3,N
1510270775.3,286046994.7,N
1510270795.2,286046991.9,Y
1510270815.9,286046992.6,P
1510270835.7,286046991.8,P
1510270855.6,286046992.0,P
1510270875.4,286046995.8,N
1510270895.2,286046994.7,N
1510270915.1,286046991.4,Y
1510270916.0,286046991.4,P
1510270935.8,286046995.5,P
1510270955.6,286046993.9,P
1510270975.5,286046994.8,Y
1510270995.3,286047000.1,P
1510271015.1,286047005.5,N
1510271035.9,286047001.3,N
1510271055.7,286047002.2,N
1510271075.5,286047004.3,N
1510271095.3,286047007.2,N
1510271115.2,286047000.3,N
1510271135.0,286047001.7,N
1510271135.9,286047001.7,N
1510271155.7,286047002.4,N
1510271175.6,286047002.8,N
1510271195.4,286047002.8,N
1510271215.2,286047002.6,N
1510271235.1,286047002.5,N
1510271236.0,286047002.5,N
1510271255.8,286046999.4,N
1510271275.6,286047002.8,N
1510271295.5,286047000.4,N
1510271315.3,286047000.0,N
1510271335.1,286046998.7,N
1510271355.9,286046999.1,N
1510271375.7,286046996.7,N
1510271395.5,286047001.1,N
1510271415.3,286047002.5,N
1510271435.2,286047001.5,N
1510271455.0,286046999.7,N
1510271455.9,286046999.7,N
1510271475.7,286047000.5,N
1510271495.6,286047002.2,N
1510271515.4,286047002.2,N
1510271535.2,286047001.3,N
1510271555.1,286047005.7,N
1510271556.0,286047005.7,N
1510271575.8,286047006.7,Y
1510271595.6,286047003.4,P
1510271615.5,286047007.5,P
1510271635.3,286047005.0,N
1510271655.1,286047003.9,N
1510271675.9,286047005.7,N
1510271695.7,286047008.1,Y
1510271715.5,286047006.9,P
1510271735.4,286047005.7,P
1510271755.2,286047003.3,P
1510271775.0,286047006.6,Y
1510271775.9,286047006.6,P
1510271795.8,286046998.4,N
1510271815.6,286046996.5,N
1510271835.4,286046999.0,N
1510271855.3,286046997.8,N
1510271875.1,286046993.6,N
1510271876.0,286046993.6,N
1510271895.8,286046999.6,N
1510271915.7,286047000.9,N
1510271935.5,286047004.4,N
1510271955.3,286047001.5,N
1510271975.1,286047003.7,N
1510271995.9,286047004.4,N
